Time,TemperatureF,DewpointF,PressureIn,WindDirection,WindDirectionDegrees,WindSpeedMPH,WindSpeedGustMPH,Humidity,HourlyPrecipIn,Conditions,Clouds,dailyrainin,SoftwareType,DateUTC
2013-04-17 00:03:00,80.7,77.0,29.89,East,80,3.0,14.0,87,0.00,,,0.00,weatherlink.com 1.10,2013-04-17 04:03:00,
2013-04-17 00:18:00,80.6,77.0,29.88,East,86,7.0,15.0,87,0.00,,,0.00,weatherlink.com 1.10,2013-04-17 04:18:00,
2013-04-17 00:33:00,80.5,76.0,29.88,ENE,68,5.0,14.0,87,0.00,,,0.00,weatherlink.com 1.10,2013-04-17 04:33:00,
2013-04-17 00:48:00,80.6,77.0,29.87,ENE,64,15.0,15.0,87,0.00,,,0.00,weatherlink.com 1.10,2013-04-17 04:48:00,
2013-04-17 01:03:00,80.6,77.0,29.87,East,91,6.0,14.0,87,0.00,,,0.00,weatherlink.com 1.10,2013-04-17 05:03:00,
2013-04-17 01:18:00,80.6,77.0,29.86,ENE,70,12.0,16.0,87,0.00,,,0.00,weatherlink.com 1.10,2013-04-17 05:18:00,
2013-04-17 01:33:00,80.5,76.0,29.86,East,90,8.0,16.0,86,0.00,,,0.00,weatherlink.com 1.10,2013-04-17 05:33:00,
2013-04-17 01:48:00,80.5,76.0,29.85,East,80,7.0,16.0,86,0.00,,,0.00,weatherlink.com 1.10,2013-04-17 05:48:00,
2013-04-17 02:03:00,80.5,76.0,29.85,ESE,117,10.0,14.0,86,0.00,,,0.00,weatherlink.com 1.10,2013-04-17 06:03:00,
2013-04-17 02:18:00,80.5,76.0,29.84,ENE,74,10.0,15.0,86,0.00,,,0.00,weatherlink.com 1.10,2013-04-17 06:18:00,
2013-04-17 02:33:00,80.5,76.0,29.83,East,84,8.0,17.0,86,0.00,,,0.00,weatherlink.com 1.10,2013-04-17 06:33:00,
2013-04-17 02:48:00,80.5,76.0,29.83,ESE,108,9.0,13.0,86,0.00,,,0.00,weatherlink.com 1.10,2013-04-17 06:48:00,
2013-04-17 03:03:00,80.4,76.0,29.83,ENE,57,7.0,15.0,86,0.00,,,0.00,weatherlink.com 1.10,2013-04-17 07:03:00,
2013-04-17 03:18:00,80.4,76.0,29.82,NE,47,10.0,13.0,86,0.00,,,0.00,weatherlink.com 1.10,2013-04-17 07:18:00,
2013-04-17 03:34:00,80.4,76.0,29.82,ENE,71,8.0,16.0,86,0.00,,,0.00,weatherlink.com 1.10,2013-04-17 07:34:00,
2013-04-17 03:49:00,80.4,76.0,29.82,East,86,9.0,13.0,86,0.00,,,0.00,weatherlink.com 1.10,2013-04-17 07:49:00,
2013-04-17 04:04:00,80.4,76.0,29.82,ENE,69,4.0,14.0,86,0.00,,,0.00,weatherlink.com 1.10,2013-04-17 08:04:00,
2013-04-17 04:19:00,80.5,76.0,29.83,East,87,10.0,16.0,86,0.00,,,0.00,weatherlink.com 1.10,2013-04-17 08:19:00,
2013-04-17 04:34:00,80.4,76.0,29.83,NE,44,2.0,13.0,86,0.00,,,0.00,weatherlink.com 1.10,2013-04-17 08:34:00,
2013-04-17 04:49:00,80.5,76.0,29.83,ENE,61,8.0,11.0,86,0.00,,,0.00,weatherlink.com 1.10,2013-04-17 08:49:00,
2013-04-17 05:04:00,80.3,76.0,29.83,East,88,10.0,11.0,86,0.00,,,0.00,weatherlink.com 1.10,2013-04-17 09:04:00,
2013-04-17 05:19:00,80.3,76.0,29.83,ENE,59,7.0,12.0,86,0.00,,,0.00,weatherlink.com 1.10,2013-04-17 09:19:00,
2013-04-17 05:34:00,80.4,76.0,29.84,East,93,5.0,14.0,86,0.00,,,0.00,weatherlink.com 1.10,2013-04-17 09:34:00,
2013-04-17 05:49:00,80.3,76.0,29.84,ENE,77,3.0,12.0,87,0.00,,,0.00,weatherlink.com 1.10,2013-04-17 09:49:00,
2013-04-17 06:04:00,80.4,76.0,29.84,ENE,78,8.0,12.0,86,0.00,,,0.00,weatherlink.com 1.10,2013-04-17 10:04:00,
2013-04-17 06:19:00,80.4,76.0,29.85,East,84,11.0,15.0,86,0.00,,,0.00,weatherlink.com 1.10,2013-04-17 10:19:00,
2013-04-17 06:34:00,80.5,76.0,29.85,ENE,69,5.0,13.0,86,0.00,,,0.00,weatherlink.com 1.10,2013-04-17 10:34:00,
2013-04-17 06:49:00,80.6,76.0,29.86,East,95,9.0,12.0,86,0.00,,,0.00,weatherlink.com 1.10,2013-04-17 10:49:00,
2013-04-17 07:04:00,80.8,76.0,29.86,ENE,67,8.0,13.0,85,0.00,,,0.00,weatherlink.com 1.10,2013-04-17 11:04:00,
2013-04-17 07:19:00,81.0,76.0,29.86,ENE,71,11.0,15.0,85,0.00,,,0.00,weatherlink.com 1.10,2013-04-17 11:19:00,
2013-04-17 07:34:00,81.3,77.0,29.87,East,81,8.0,16.0,85,0.00,,,0.00,weatherlink.com 1.10,2013-04-17 11:34:00,
2013-04-17 07:49:00,81.7,77.0,29.87,East,90,8.0,16.0,85,0.00,,,0.00,weatherlink.com 1.10,2013-04-17 11:49:00,
2013-04-17 08:04:00,81.8,77.0,29.88,East,98,14.0,17.0,84,0.00,,,0.00,weatherlink.com 1.10,2013-04-17 12:04:00,
2013-04-17 08:19:00,82.0,76.0,29.88,ENE,78,7.0,17.0,83,0.00,,,0.00,weatherlink.com 1.10,2013-04-17 12:19:00,
2013-04-17 08:34:00,82.6,77.0,29.88,ENE,57,9.0,17.0,82,0.00,,,0.00,weatherlink.com 1.10,2013-04-17 12:34:00,
2013-04-17 08:49:00,83.3,77.0,29.88,ESE,113,8.0,23.0,81,0.00,,,0.00,weatherlink.com 1.10,2013-04-17 12:49:00,
2013-04-17 09:04:00,83.9,77.0,29.89,East,101,6.0,21.0,80,0.00,,,0.00,weatherlink.com 1.10,2013-04-17 13:04:00,
2013-04-17 09:19:00,84.2,77.0,29.89,ENE,68,7.0,22.0,79,0.00,,,0.00,weatherlink.com 1.10,2013-04-17 13:19:00,
2013-04-17 09:34:00,84.6,77.0,29.89,ENE,77,15.0,21.0,79,0.00,,,0.00,weatherlink.com 1.10,2013-04-17 13:34:00,
2013-04-17 09:49:00,84.9,77.0,29.89,ENE,59,9.0,22.0,78,0.00,,,0.00,weatherlink.com 1.10,2013-04-17 13:49:00,
2013-04-17 10:04:00,85.0,77.0,29.88,East,92,16.0,18.0,78,0.00,,,0.00,weatherlink.com 1.10,2013-04-17 14:04:00,
2013-04-17 10:19:00,85.4,77.0,29.88,ENE,64,15.0,22.0,77,0.00,,,0.00,weatherlink.com 1.10,2013-04-17 14:19:00,
2013-04-17 10:34:00,85.6,78.0,29.87,ENE,61,8.0,19.0,77,0.00,,,0.00,weatherlink.com 1.10,2013-04-17 14:34:00,
2013-04-17 10:49:00,85.9,77.0,29.86,ENE,70,8.0,23.0,75,0.00,,,0.00,weatherlink.com 1.10,2013-04-17 14:49:00,
2013-04-17 11:04:00,85.8,77.0,29.86,East,85,9.0,21.0,76,0.00,,,0.00,weatherlink.com 1.10,2013-04-17 15:04:00,
2013-04-17 11:19:00,86.8,78.0,29.86,ESE,105,11.0,17.0,74,0.00,,,0.00,weatherlink.com 1.10,2013-04-17 15:19:00,
2013-04-17 11:34:00,86.1,77.0,29.85,NNE,13,12.0,22.0,74,0.00,,,0.00,weatherlink.com 1.10,2013-04-17 15:34:00,
2013-04-17 11:49:00,86.0,77.0,29.85,ESE,109,11.0,23.0,75,0.00,,,0.00,weatherlink.com 1.10,2013-04-17 15:49:00,
2013-04-17 12:04:00,86.5,77.0,29.85,East,84,18.0,19.0,74,0.00,,,0.00,weatherlink.com 1.10,2013-04-17 16:04:00,
2013-04-17 12:19:00,86.3,77.0,29.85,East,93,8.0,22.0,74,0.00,,,0.00,weatherlink.com 1.10,2013-04-17 16:19:00,
2013-04-17 12:34:00,86.3,78.0,29.84,East,100,8.0,21.0,75,0.00,,,0.00,weatherlink.com 1.10,2013-04-17 16:34:00,
2013-04-17 12:49:00,86.7,78.0,29.84,NE,52,6.0,21.0,74,0.00,,,0.00,weatherlink.com 1.10,2013-04-17 16:49:00,
2013-04-17 13:04:00,86.0,77.0,29.83,East,96,10.0,19.0,74,0.00,,,0.00,weatherlink.com 1.10,2013-04-17 17:04:00,
2013-04-17 13:19:00,86.4,77.0,29.83,East,90,15.0,17.0,73,0.00,,,0.00,weatherlink.com 1.10,2013-04-17 17:19:00,
2013-04-17 13:34:00,86.4,77.0,29.82,ENE,76,5.0,19.0,74,0.00,,,0.00,weatherlink.com 1.10,2013-04-17 17:34:00,
2013-04-17 13:49:00,85.6,76.0,29.81,ENE,69,5.0,22.0,74,0.00,,,0.00,weatherlink.com 1.10,2013-04-17 17:49:00,
2013-04-17 14:04:00,86.2,77.0,29.80,ESE,115,5.0,17.0,73,0.00,,,0.00,weatherlink.com 1.10,2013-04-17 18:04:00,
2013-04-17 14:19:00,86.0,76.0,29.80,ENE,67,10.0,23.0,73,0.00,,,0.00,weatherlink.com 1.10,2013-04-17 18:19:00,
2013-04-17 14:34:00,85.4,76.0,29.79,ESE,102,12.0,24.0,74,0.00,,,0.00,weatherlink.com 1.10,2013-04-17 18:34:00,
2013-04-17 14:49:00,85.0,76.0,29.79,East,81,8.0,25.0,75,0.00,,,0.00,weatherlink.com 1.10,2013-04-17 18:49:00,
2013-04-17 15:04:00,85.5,77.0,29.78,ESE,102,9.0,17.0,75,0.00,,,0.00,weatherlink.com 1.10,2013-04-17 19:04:00,
2013-04-17 15:19:00,85.2,77.0,29.78,ESE,102,7.0,21.0,75,0.00,,,0.00,weatherlink.com 1.10,2013-04-17 19:19:00,
2013-04-17 15:34:00,84.8,76.0,29.78,East,89,9.0,19.0,75,0.00,,,0.00,weatherlink.com 1.10,2013-04-17 19:34:00,
2013-04-17 15:49:00,84.3,76.0,29.78,East,92,17.0,18.0,76,0.00,,,0.00,weatherlink.com 1.10,2013-04-17 19:49:00,
2013-04-17 16:05:00,84.2,76.0,29.77,ENE,57,12.0,18.0,77,0.00,,,0.00,weatherlink.com 1.10,2013-04-17 20:05:00,
2013-04-17 16:20:00,83.9,76.0,29.76,ENE,69,3.0,19.0,77,0.00,,,0.00,weatherlink.com 1.10,2013-04-17 20:20:00,
2013-04-17 16:35:00,83.8,76.0,29.76,East,90,6.0,18.0,77,0.00,,,0.00,weatherlink.com 1.10,2013-04-17 20:35:00,
2013-04-17 16:50:00,83.7,76.0,29.76,East,92,8.0,18.0,77,0.00,,,0.00,weatherlink.com 1.10,2013-04-17 20:50:00,
2013-04-17 17:05:00,83.8,76.0,29.77,ENE,73,5.0,15.0,78,0.00,,,0.00,weatherlink.com 1.10,2013-04-17 21:05:00,
2013-04-17 17:20:00,83.1,76.0,29.77,ENE,75,8.0,22.0,78,0.00,,,0.00,weatherlink.com 1.10,2013-04-17 21:20:00,
2013-04-17 17:35:00,83.1,76.0,29.77,NNE,14,7.0,18.0,78,0.00,,,0.00,weatherlink.com 1.10,2013-04-17 21:35:00,
2013-04-17 17:50:00,82.8,76.0,29.77,ENE,78,3.0,17.0,79,0.00,,,0.00,weatherlink.com 1.10,2013-04-17 21:50:00,
2013-04-17 18:05:00,82.3,75.0,29.78,ESE,117,7.0,19.0,79,0.00,,,0.00,weatherlink.com 1.10,2013-04-17 22:05:00,
2013-04-17 18:20:00,82.0,75.0,29.79,NNE,30,11.0,16.0,80,0.00,,,0.00,weatherlink.com 1.10,2013-04-17 22:20:00,
2013-04-17 18:35:00,81.8,76.0,29.80,ENE,59,5.0,18.0,82,0.00,,,0.00,weatherlink.com 1.10,2013-04-17 22:35:00,
2013-04-17 18:50:00,81.5,76.0,29.80,NE,48,7.0,18.0,82,0.00,,,0.00,weatherlink.com 1.10,2013-04-17 22:50:00,
2013-04-17 19:05:00,81.4,76.0,29.81,ENE,77,7.0,15.0,83,0.00,,,0.00,weatherlink.com 1.10,2013-04-17 23:05:00,
2013-04-17 19:20:00,81.4,76.0,29.82,ENE,67,11.0,16.0,83,0.00,,,0.00,weatherlink.com 1.10,2013-04-17 23:20:00,
2013-04-17 19:35:00,81.3,75.0,29.82,East,95,6.0,14.0,82,0.00,,,0.00,weatherlink.com 1.10,2013-04-17 23:35:00,
2013-04-17 19:50:00,81.2,76.0,29.83,East,92,11.0,19.0,83,0.00,,,0.00,weatherlink.com 1.10,2013-04-17 23:50:00,
2013-04-17 20:05:00,81.1,76.0,29.83,ENE,76,5.0,17.0,83,0.00,,,0.00,weatherlink.com 1.10,2013-04-18 00:05:00,
2013-04-17 20:20:00,81.1,76.0,29.84,NE,54,8.0,14.0,84,0.00,,,0.00,weatherlink.com 1.10,2013-04-18 00:20:00,
2013-04-17 20:35:00,81.1,76.0,29.84,NE,39,4.0,17.0,84,0.00,,,0.00,weatherlink.com 1.10,2013-04-18 00:35:00,
2013-04-17 20:50:00,81.0,76.0,29.84,NE,42,10.0,15.0,85,0.00,,,0.00,weatherlink.com 1.10,2013-04-18 00:50:00,
2013-04-17 21:05:00,80.9,76.0,29.84,East,83,5.0,17.0,85,0.00,,,0.00,weatherlink.com 1.10,2013-04-18 01:05:00,
2013-04-17 21:20:00,80.8,76.0,29.85,East,80,3.0,13.0,85,0.00,,,0.00,weatherlink.com 1.10,2013-04-18 01:20:00,
2013-04-17 21:50:00,80.6,76.0,29.84,North,360,7.0,15.0,85,0.00,,,0.00,weatherlink.com 1.10,2013-04-18 01:50:00,
2013-04-17 22:05:00,80.7,76.0,29.85,ENE,58,7.0,17.0,85,0.00,,,0.00,weatherlink.com 1.10,2013-04-18 02:05:00,
2013-04-17 22:20:00,80.8,76.0,29.86,ESE,109,5.0,14.0,85,0.00,,,0.00,weatherlink.com 1.10,2013-04-18 02:20:00,
2013-04-17 22:35:00,80.7,76.0,29.86,ENE,70,7.0,16.0,86,0.00,,,0.00,weatherlink.com 1.10,2013-04-18 02:35:00,
2013-04-17 22:50:00,80.6,76.0,29.86,East,79,5.0,15.0,86,0.00,,,0.00,weatherlink.com 1.10,2013-04-18 02:50:00,
2013-04-17 23:20:00,80.6,76.0,29.86,East,79,5.0,15.0,86,0.00,,,0.00,weatherlink.com 1.10,2013-04-18 03:20:00,
2013-04-17 23:35:00,80.5,76.0,29.86,NE,46,5.0,17.0,86,0.00,,,0.00,weatherlink.com 1.10,2013-04-18 03:35:00,
2013-04-17 23:50:00,80.5,76.0,29.86,ENE,61,3.0,13.0,86,0.00,,,0.00,weatherlink.com 1.10,2013-04-18 03:50:00,